Theta_e
297 291 293 296 301 303 305 307 308 318 327 327 328 341 341 347 353 355 355 357 358 362 361 361 360 359 358 359 359 359 359 359
294 291 296 299 301 302 304 305 311 321 324 332 340 342 345 354 355 353 354 356 360 361 361 360 359 359 358 358 359 359 359 359
290 293 299 301 303 303 301 302 309 323 324 326 342 349 353 353 353 351 352 355 359 361 360 360 360 360 358 358 358 359 359 359
288 294 301 303 302 300 299 301 321 324 325 326 345 347 351 353 351 352 351 355 356 359 359 359 360 359 358 357 357 358 359 359
290 295 295 302 300 298 298 300 309 327 321 325 339 345 350 349 350 351 353 353 353 355 358 359 359 358 358 357 357 357 357 357
291 292 294 302 300 297 299 302 313 325 317 320 334 345 344 346 347 348 351 352 352 353 354 354 355 359 358 357 357 357 357 357
291 293 296 300 299 302 303 302 308 312 316 321 342 342 340 343 344 345 348 347 350 351 352 352 352 356 358 358 358 358 357 357
297 297 296 298 300 300 301 302 304 309 311 338 341 339 337 339 340 342 343 346 348 350 351 350 353 351 352 353 355 354 354 353
299 298 298 297 298 301 300 298 301 303 305 316 332 336 337 338 340 341 343 345 348 348 351 352 351 352 352 352 353 352 351 351
299 301 300 297 299 299 301 302 304 305 306 306 317 326 332 336 339 340 342 343 346 348 350 350 351 352 351 350 352 350 352 350
300 299 297 299 297 299 300 304 304 303 305 304 304 308 313 333 337 340 341 343 344 347 348 349 349 351 349 349 350 350 350 350
297 297 294 296 297 297 300 304 303 302 302 303 303 303 304 307 312 334 342 344 344 345 347 348 348 349 349 348 350 349 350 350
295 296 296 296 293 294 302 303 302 301 301 301 302 302 303 305 306 310 325 341 342 343 345 346 346 347 347 348 349 349 348 349
294 296 298 297 289 298 302 301 300 300 300 301 301 302 303 304 304 308 318 325 338 344 342 343 343 345 345 344 344 345 346 347
293 297 297 294 290 298 299 298 298 299 299 300 301 302 304 305 304 309 317 332 334 338 339 340 339 341 344 343 341 342 343 343
290 295 294 291 292 296 298 298 298 298 299 300 300 302 304 305 306 310 327 334 335 337 338 338 336 337 340 344 347 346 342 340
292 295 292 290 291 294 297 295 295 296 297 298 299 303 304 305 313 321 331 332 334 336 336 335 333 332 332 332 339 343 346 347
292 295 292 292 291 294 296 296 296 296 297 298 300 300 303 307 315 322 330 332 331 334 333 336 332 328 329 330 331 333 334 336
290 293 292 291 289 291 296 296 297 298 298 299 300 300 301 304 310 316 324 325 327 328 329 328 325 323 319 319 317 317 320 324
292 289 284 290 282 288 292 293 296 297 297 298 299 300 300 302 308 314 319 320 322 322 322 322 322 318 316 313 312 315 318 322
Wind_Speed
5 4 6 6 5 2 5 12 5 3 5 2 1 3 7 4 14 14 12 11 11 15 15 14 18 18 17 17 17 16 16 15
5 6 6 7 4 3 8 7 4 3 6 2 2 6 5 13 14 13 12 11 15 16 16 15 17 17 17 16 17 16 16 15
1 4 5 3 5 5 4 5 4 4 6 2 3 6 14 14 14 13 10 9 11 17 17 17 18 18 18 17 16 16 15 15
4 4 3 2 4 2 2 5 4 1 6 6 3 6 10 12 13 11 12 9 8 14 15 16 16 17 17 16 16 16 15 15
3 3 1 2 3 3 2 6 5 5 2 2 3 3 7 8 8 11 10 10 7 8 11 14 13 13 13 13 13 12 12 12
5 3 4 2 2 2 1 5 3 3 4 5 4 10 9 8 6 5 7 9 10 9 9 8 8 13 13 13 13 12 11 10
5 6 4 1 5 6 3 3 3 4 1 3 14 12 9 8 4 3 4 5 6 8 6 6 6 9 12 15 13 12 11 11
7 5 1 5 3 5 5 5 5 2 6 6 14 11 10 10 9 7 9 7 6 6 7 6 6 5 5 5 5 5 6 6
4 5 2 3 7 3 6 2 2 4 5 5 4 5 7 9 11 14 7 7 8 6 7 8 5 4 3 3 3 2 3 4
5 3 5 3 1 5 4 5 2 3 2 5 8 7 6 5 6 7 8 7 6 7 8 9 5 6 6 6 6 5 7 5
11 7 5 5 6 6 5 10 8 6 4 7 5 8 8 10 7 6 8 9 10 10 10 9 9 7 7 6 6 7 8 8
5 7 4 6 9 7 6 7 7 5 7 6 8 8 4 7 9 10 10 12 12 13 12 10 10 9 7 5 6 5 7 8
6 5 7 7 7 7 13 7 8 8 8 8 10 5 10 9 8 10 9 9 12 12 11 12 11 8 6 6 5 6 7 8
4 9 6 10 7 4 10 7 9 9 9 8 9 10 10 8 9 8 5 9 7 10 12 12 11 8 6 6 5 4 4 5
5 9 4 6 4 6 3 6 8 10 10 9 9 8 10 10 10 10 9 8 9 9 11 10 7 6 6 6 4 4 4 3
5 1 3 2 6 8 5 4 9 9 9 8 9 13 10 8 7 8 7 6 6 7 9 8 6 4 3 3 4 3 3 3
3 3 3 3 4 11 8 3 8 9 8 9 10 10 5 5 6 7 6 8 9 9 9 10 6 6 3 3 3 2 2 4
6 5 4 6 7 8 7 5 5 5 8 10 5 8 3 5 7 9 10 10 8 8 10 10 5 3 3 4 3 3 3 5
6 4 3 4 6 4 5 5 5 4 4 5 6 9 6 4 6 2 8 10 10 9 8 5 8 7 4 4 4 3 2 2
5 4 3 3 6 4 4 7 6 7 4 7 7 8 6 7 7 10 11 4 6 7 7 5 6 6 5 5 4 2 3 2
Wind_Direction
104 120 171 218 227 260 265 270 228 294 49 61 37 69 173 142 142 137 144 143 155 152 147 150 139 136 136 136 136 137 137 137
106 200 242 212 268 245 326 314 140 163 93 52 183 151 170 138 138 138 147 146 156 155 151 150 143 140 141 142 141 142 142 142
139 235 254 225 263 292 317 274 280 336 159 155 37 108 135 140 147 147 145 148 154 160 158 156 154 151 151 151 150 149 151 152
222 240 250 257 259 261 254 287 296 68 154 160 113 135 154 149 151 148 145 147 156 167 161 160 161 158 157 157 158 159 161 165
199 251 315 235 284 242 293 267 263 148 119 316 179 147 143 131 131 139 143 143 151 161 168 165 164 161 159 160 164 166 168 171
229 200 253 239 344 330 180 268 284 114 203 223 191 116 104 89 87 121 151 161 165 167 168 164 163 167 166 168 171 172 175 177
226 162 226 111 24 316 270 286 43 9 241 274 111 110 102 100 85 102 175 172 171 168 165 162 160 176 176 178 178 180 182 185
205 193 177 327 87 306 333 7 33 23 38 93 126 136 146 160 170 186 199 191 182 172 165 153 170 169 159 174 175 175 177 178
232 222 131 104 322 265 298 58 117 89 95 90 105 155 176 184 190 197 192 189 185 168 163 169 169 149 154 150 160 165 176 177
298 187 200 223 266 308 219 269 311 172 110 132 162 188 207 216 197 185 177 185 170 169 169 179 152 179 185 181 188 200 205 186
235 244 270 330 251 227 256 281 294 292 199 165 188 199 204 204 196 172 188 185 185 178 185 184 177 178 179 184 193 199 206 205
252 249 212 192 266 126 274 263 264 238 265 250 190 200 247 191 197 193 199 203 186 192 190 185 193 183 180 180 185 176 206 214
223 232 231 164 298 197 234 238 246 226 225 241 249 243 206 218 204 195 206 197 192 188 182 186 194 178 169 174 175 195 205 208
244 163 237 149 254 260 235 209 242 251 256 239 239 230 244 198 224 224 195 187 175 183 185 185 186 175 163 170 170 170 183 183
278 201 133 159 213 248 242 191 254 257 244 235 251 242 242 237 203 214 214 169 175 177 186 185 160 153 154 169 176 188 182 188
211 146 168 157 244 276 274 201 257 262 239 236 245 251 242 234 187 221 206 183 165 167 160 154 134 129 129 158 188 162 185 198
243 283 3 236 256 277 292 316 280 265 249 228 228 255 252 207 175 174 191 173 175 169 164 153 158 157 158 170 108 85 150 154
283 261 162 288 280 276 285 247 243 270 267 259 289 309 322 188 177 187 193 188 180 185 173 177 152 103 126 130 110 135 110 100
231 358 288 332 313 295 302 299 334 306 264 260 266 283 280 219 252 237 204 193 184 186 177 159 124 115 84 66 74 101 105 110
223 112 215 102 279 295 261 299 303 301 321 301 310 301 288 237 216 201 222 168 158 141 131 120 125 118 127 141 147 158 127 148